Location: Helsinki
(60.1699°N, 24.9384°E)
Time: 17:43:58
(UTC+02:00)

A-11 Canister half - Pass Details

Date: 05 November 2020
Orbit: 1525 x 1684 km, 47.3° (Epoch: 29 November)

Event Time Altitude Azimuth Distance (km) Brightness Sun altitude
Rises 17:34:05 0° 271° (W) 4,756 13.3 -10.2°
Reaches altitude 10° 17:37:40 10° 261° (W) 3,749 12.6 -10.6°
Maximum altitude 17:45:17 29° 206° (SSW) 2,533 10.6 -11.5°
Drops below altitude 10° 17:52:48 10° 151° (SSE) 3,689 10.8 -12.4°
Sets 17:56:19 0° 141° (SE) 4,668 11.2 -12.9°
